Time,TemperatureF,DewpointF,PressureIn,WindDirection,WindDirectionDegrees,WindSpeedMPH,WindSpeedGustMPH,Humidity,HourlyPrecipIn,Conditions,Clouds,dailyrainin,SoftwareType,DateUTC
2013-03-24 00:02:00,60.8,55.0,29.68,North,0,0.0,0.0,81,0.00,,,0.00,WUHU216HW,2013-03-24 05:02:00,
2013-03-24 00:07:00,60.6,54.8,29.68,North,0,0.0,0.0,81,0.00,,,0.00,WUHU216HW,2013-03-24 05:07:00,
2013-03-24 00:12:00,60.4,54.9,29.68,North,0,0.0,0.0,83,0.00,,,0.00,WUHU216HW,2013-03-24 05:12:00,
2013-03-24 00:17:00,60.0,54.9,29.68,North,0,0.0,0.0,83,0.00,,,0.00,WUHU216HW,2013-03-24 05:17:00,
2013-03-24 00:22:00,59.7,54.5,29.68,North,0,0.0,0.0,83,0.00,,,0.00,WUHU216HW,2013-03-24 05:22:00,
2013-03-24 00:27:00,59.5,54.3,29.67,North,0,0.0,0.0,83,0.00,,,0.00,WUHU216HW,2013-03-24 05:27:00,
2013-03-24 00:32:00,60.2,56.0,29.67,North,0,0.0,0.0,86,0.00,,,0.00,WUHU216HW,2013-03-24 05:32:00,
2013-03-24 00:37:00,60.4,56.2,29.67,North,0,0.0,0.0,86,0.00,,,0.00,WUHU216HW,2013-03-24 05:37:00,
2013-03-24 00:42:00,60.4,56.2,29.66,North,0,0.0,0.0,86,0.00,,,0.00,WUHU216HW,2013-03-24 05:42:00,
2013-03-24 00:47:00,60.4,56.2,29.68,North,0,0.0,0.0,86,0.00,,,0.00,WUHU216HW,2013-03-24 05:47:00,
2013-03-24 00:52:00,60.6,56.4,29.67,North,0,0.0,0.0,86,0.00,,,0.00,WUHU216HW,2013-03-24 05:52:00,
2013-03-24 00:57:00,60.4,56.2,29.67,North,0,0.0,0.0,86,0.00,,,0.00,WUHU216HW,2013-03-24 05:57:00,
2013-03-24 01:02:00,60.6,56.4,29.67,North,0,0.0,0.0,86,0.00,,,0.00,WUHU216HW,2013-03-24 06:02:00,
2013-03-24 01:07:00,60.8,56.6,29.67,North,0,0.0,0.0,86,0.00,,,0.00,WUHU216HW,2013-03-24 06:07:00,
2013-03-24 01:12:00,60.9,56.7,29.69,North,0,0.0,0.0,86,0.00,,,0.00,WUHU216HW,2013-03-24 06:12:00,
2013-03-24 01:17:00,60.4,56.2,29.69,North,0,0.0,0.0,86,0.00,,,0.00,WUHU216HW,2013-03-24 06:17:00,
2013-03-24 01:22:00,60.4,56.2,29.69,North,0,0.0,0.0,86,0.00,,,0.00,WUHU216HW,2013-03-24 06:22:00,
2013-03-24 01:27:00,60.4,56.2,29.70,North,0,0.0,0.0,87,0.00,,,0.00,WUHU216HW,2013-03-24 06:27:00,
2013-03-24 01:32:00,60.4,56.5,29.72,North,0,0.0,0.0,87,0.00,,,0.00,WUHU216HW,2013-03-24 06:32:00,
2013-03-24 01:37:00,60.2,56.4,29.72,North,0,0.0,0.0,87,0.00,,,0.00,WUHU216HW,2013-03-24 06:37:00,
2013-03-24 01:43:00,60.0,56.2,29.72,North,0,0.0,0.0,87,0.00,,,0.00,WUHU216HW,2013-03-24 06:43:00,
2013-03-24 01:48:00,59.7,55.8,29.72,North,0,0.0,0.0,87,0.00,,,0.00,WUHU216HW,2013-03-24 06:48:00,
2013-03-24 01:53:00,59.5,55.6,29.73,North,0,0.0,0.0,87,0.00,,,0.00,WUHU216HW,2013-03-24 06:53:00,
2013-03-24 01:58:00,59.1,55.3,29.74,North,0,0.0,0.0,87,0.00,,,0.00,WUHU216HW,2013-03-24 06:58:00,
2013-03-24 02:03:00,59.1,55.3,29.74,North,0,0.0,0.0,87,0.00,,,0.00,WUHU216HW,2013-03-24 07:03:00,
2013-03-24 02:08:00,59.7,55.8,29.77,North,0,0.0,0.0,87,0.00,,,0.00,WUHU216HW,2013-03-24 07:08:00,
2013-03-24 02:13:00,59.5,55.6,29.77,North,0,0.0,0.0,87,0.00,,,0.00,WUHU216HW,2013-03-24 07:13:00,
2013-03-24 02:18:00,59.0,55.1,29.78,North,0,0.0,0.0,87,0.00,,,0.00,WUHU216HW,2013-03-24 07:18:00,
2013-03-24 02:23:00,59.0,55.1,29.79,North,0,0.0,0.0,87,0.00,,,0.00,WUHU216HW,2013-03-24 07:23:00,
2013-03-24 02:28:00,59.0,55.1,29.79,North,0,0.0,0.0,87,0.00,,,0.00,WUHU216HW,2013-03-24 07:28:00,
2013-03-24 02:33:00,59.0,55.1,29.81,North,0,0.0,0.0,87,0.00,,,0.00,WUHU216HW,2013-03-24 07:33:00,
2013-03-24 02:38:00,58.6,54.1,29.82,North,0,0.0,0.0,85,0.00,,,0.00,WUHU216HW,2013-03-24 07:38:00,
2013-03-24 02:43:00,58.2,53.7,29.82,North,0,0.0,0.0,84,0.00,,,0.00,WUHU216HW,2013-03-24 07:43:00,
2013-03-24 02:48:00,57.7,52.5,29.83,North,0,0.0,0.0,83,0.00,,,0.00,WUHU216HW,2013-03-24 07:48:00,
2013-03-24 02:53:00,57.0,51.5,29.84,North,0,0.0,0.0,82,0.00,,,0.00,WUHU216HW,2013-03-24 07:53:00,
2013-03-24 02:58:00,56.6,51.1,29.85,North,0,0.0,0.0,82,0.00,,,0.00,WUHU216HW,2013-03-24 07:58:00,
2013-03-24 03:03:00,55.5,50.1,29.85,North,0,0.0,0.0,82,0.00,,,0.00,WUHU216HW,2013-03-24 08:03:00,
2013-03-24 03:08:00,55.2,49.7,29.85,North,0,0.0,0.0,83,0.00,,,0.00,WUHU216HW,2013-03-24 08:08:00,
2013-03-24 03:13:00,55.0,49.9,29.86,North,0,0.0,0.0,83,0.00,,,0.00,WUHU216HW,2013-03-24 08:13:00,
2013-03-24 03:18:00,54.6,49.5,29.86,North,0,0.0,0.0,83,0.00,,,0.00,WUHU216HW,2013-03-24 08:18:00,
2013-03-24 03:23:00,54.6,49.5,29.86,North,0,0.0,0.0,83,0.00,,,0.00,WUHU216HW,2013-03-24 08:23:00,
2013-03-24 03:28:00,54.5,48.7,29.87,North,0,0.0,0.0,81,0.00,,,0.00,WUHU216HW,2013-03-24 08:28:00,
2013-03-24 03:33:00,54.3,48.3,29.87,North,0,0.0,0.0,80,0.00,,,0.00,WUHU216HW,2013-03-24 08:33:00,
2013-03-24 03:38:00,54.1,47.7,29.87,North,0,0.0,0.0,79,0.00,,,0.00,WUHU216HW,2013-03-24 08:38:00,
2013-03-24 03:44:00,53.7,46.3,29.88,North,0,0.0,0.0,76,0.00,,,0.00,WUHU216HW,2013-03-24 08:44:00,
2013-03-24 03:49:00,53.2,46.2,29.87,North,0,0.0,0.0,77,0.00,,,0.00,WUHU216HW,2013-03-24 08:49:00,
2013-03-24 03:54:00,53.0,46.0,29.88,North,0,0.0,0.0,77,0.00,,,0.00,WUHU216HW,2013-03-24 08:54:00,
2013-03-24 03:59:00,52.7,45.7,29.88,North,0,0.0,0.0,76,0.00,,,0.00,WUHU216HW,2013-03-24 08:59:00,
2013-03-24 04:04:00,52.5,45.1,29.88,North,0,0.0,0.0,76,0.00,,,0.00,WUHU216HW,2013-03-24 09:04:00,
2013-03-24 04:09:00,52.3,45.0,29.88,North,0,0.0,0.0,76,0.00,,,0.00,WUHU216HW,2013-03-24 09:09:00,
2013-03-24 04:14:00,51.9,44.3,29.88,North,0,0.0,0.0,75,0.00,,,0.00,WUHU216HW,2013-03-24 09:14:00,
2013-03-24 04:19:00,51.6,43.6,29.89,North,0,0.0,0.0,74,0.00,,,0.00,WUHU216HW,2013-03-24 09:19:00,
2013-03-24 04:24:00,51.4,43.4,29.89,North,0,0.0,0.0,74,0.00,,,0.00,WUHU216HW,2013-03-24 09:24:00,
2013-03-24 04:29:00,50.7,42.7,29.89,North,0,0.0,0.0,74,0.00,,,0.00,WUHU216HW,2013-03-24 09:29:00,
2013-03-24 04:34:00,50.1,42.5,29.89,North,0,0.0,0.0,75,0.00,,,0.00,WUHU216HW,2013-03-24 09:34:00,
2013-03-24 04:39:00,49.8,42.1,29.90,North,0,0.0,0.0,75,0.00,,,0.00,WUHU216HW,2013-03-24 09:39:00,
2013-03-24 04:44:00,49.1,40.7,29.90,North,0,0.0,0.0,73,0.00,,,0.00,WUHU216HW,2013-03-24 09:44:00,
2013-03-24 04:49:00,48.7,40.7,29.90,North,0,0.0,0.0,74,0.00,,,0.00,WUHU216HW,2013-03-24 09:49:00,
2013-03-24 04:54:00,48.3,40.3,29.91,North,0,0.0,0.0,74,0.00,,,0.00,WUHU216HW,2013-03-24 09:54:00,
2013-03-24 04:59:00,47.8,39.8,29.91,North,0,0.0,0.0,74,0.00,,,0.00,WUHU216HW,2013-03-24 09:59:00,
2013-03-24 05:04:00,47.4,39.2,29.92,North,0,0.0,0.0,73,0.00,,,0.00,WUHU216HW,2013-03-24 10:04:00,
2013-03-24 05:09:00,47.1,39.2,29.92,North,0,0.0,0.0,74,0.00,,,0.00,WUHU216HW,2013-03-24 10:09:00,
2013-03-24 05:14:00,47.1,39.2,29.92,North,0,0.0,0.0,74,0.00,,,0.00,WUHU216HW,2013-03-24 10:14:00,
2013-03-24 05:19:00,46.2,38.4,29.93,North,0,0.0,0.0,74,0.00,,,0.00,WUHU216HW,2013-03-24 10:19:00,
2013-03-24 05:24:00,46.0,38.2,29.93,North,0,0.0,0.0,74,0.00,,,0.00,WUHU216HW,2013-03-24 10:24:00,
2013-03-24 05:29:00,45.6,37.8,29.94,North,0,0.0,0.0,74,0.00,,,0.00,WUHU216HW,2013-03-24 10:29:00,
2013-03-24 05:34:00,45.5,38.0,29.94,North,0,0.0,0.0,75,0.00,,,0.00,WUHU216HW,2013-03-24 10:34:00,
2013-03-24 05:39:00,45.1,36.9,29.94,North,0,0.0,0.0,73,0.00,,,0.00,WUHU216HW,2013-03-24 10:39:00,
2013-03-24 05:45:00,44.4,35.9,29.95,North,0,0.0,0.0,72,0.00,,,0.00,WUHU216HW,2013-03-24 10:45:00,
2013-03-24 06:06:00,43.3,35.2,29.95,North,0,0.0,0.0,73,0.00,,,0.00,WUHU216HW,2013-03-24 11:06:00,
2013-03-24 06:11:00,43.3,35.2,29.96,North,0,0.0,0.0,73,0.00,,,0.00,WUHU216HW,2013-03-24 11:11:00,
2013-03-24 06:16:00,43.1,34.7,29.96,North,0,0.0,0.0,71,0.00,,,0.00,WUHU216HW,2013-03-24 11:16:00,
2013-03-24 06:21:00,42.9,34.2,29.97,North,0,0.0,0.0,71,0.00,,,0.00,WUHU216HW,2013-03-24 11:21:00,
2013-03-24 06:26:00,42.8,34.4,29.97,North,0,0.0,0.0,72,0.00,,,0.00,WUHU216HW,2013-03-24 11:26:00,
2013-03-24 06:32:00,42.6,33.9,29.97,North,0,0.0,0.0,70,0.00,,,0.00,WUHU216HW,2013-03-24 11:32:00,
2013-03-24 06:37:00,42.4,33.4,29.97,North,0,0.0,0.0,70,0.00,,,0.00,WUHU216HW,2013-03-24 11:37:00,
2013-03-24 06:42:00,42.4,33.4,29.98,North,0,0.0,0.0,70,0.00,,,0.00,WUHU216HW,2013-03-24 11:42:00,
2013-03-24 06:47:00,42.2,33.2,29.98,North,0,0.0,0.0,70,0.00,,,0.00,WUHU216HW,2013-03-24 11:47:00,
2013-03-24 06:52:00,42.0,33.0,29.99,North,0,0.0,0.0,70,0.00,,,0.00,WUHU216HW,2013-03-24 11:52:00,
2013-03-24 06:57:00,41.7,31.9,29.99,North,0,0.0,0.0,68,0.00,,,0.00,WUHU216HW,2013-03-24 11:57:00,
2013-03-24 07:02:00,41.5,31.3,30.00,North,0,0.0,0.0,66,0.00,,,0.00,WUHU216HW,2013-03-24 12:02:00,
2013-03-24 07:07:00,41.1,30.6,30.01,North,0,0.0,0.0,64,0.00,,,0.00,WUHU216HW,2013-03-24 12:07:00,
2013-03-24 07:12:00,40.8,29.5,30.01,North,0,0.0,0.0,64,0.00,,,0.00,WUHU216HW,2013-03-24 12:12:00,
2013-03-24 07:17:00,40.6,29.3,30.01,North,0,0.0,0.0,64,0.00,,,0.00,WUHU216HW,2013-03-24 12:17:00,
2013-03-24 07:22:00,40.6,29.3,30.02,North,0,0.0,0.0,64,0.00,,,0.00,WUHU216HW,2013-03-24 12:22:00,
2013-03-24 07:27:00,40.6,29.3,30.02,North,0,0.0,0.0,64,0.00,,,0.00,WUHU216HW,2013-03-24 12:27:00,
2013-03-24 07:32:00,40.2,29.3,30.03,North,0,0.0,0.0,65,0.00,,,0.00,WUHU216HW,2013-03-24 12:32:00,
2013-03-24 07:37:00,40.2,29.3,30.03,North,0,0.0,0.0,65,0.00,,,0.00,WUHU216HW,2013-03-24 12:37:00,
2013-03-24 07:42:00,39.9,29.0,30.03,North,0,0.0,0.0,65,0.00,,,0.00,WUHU216HW,2013-03-24 12:42:00,
2013-03-24 07:47:00,39.7,28.4,30.04,North,0,0.0,0.0,62,0.00,,,0.00,WUHU216HW,2013-03-24 12:47:00,
2013-03-24 07:52:00,39.7,28.4,30.04,North,0,0.0,0.0,61,0.00,,,0.00,WUHU216HW,2013-03-24 12:52:00,
2013-03-24 07:57:00,39.7,26.9,30.04,North,0,0.0,0.0,60,0.00,,,0.00,WUHU216HW,2013-03-24 12:57:00,
2013-03-24 08:02:00,39.3,26.1,30.04,North,0,0.0,0.0,59,0.00,,,0.00,WUHU216HW,2013-03-24 13:02:00,
2013-03-24 08:07:00,39.3,26.1,30.05,North,0,0.0,0.0,57,0.00,,,0.00,WUHU216HW,2013-03-24 13:07:00,
2013-03-24 08:12:00,39.2,25.5,30.05,North,0,0.0,0.0,58,0.00,,,0.00,WUHU216HW,2013-03-24 13:12:00,
2013-03-24 08:17:00,39.0,25.3,30.05,North,0,0.0,0.0,58,0.00,,,0.00,WUHU216HW,2013-03-24 13:17:00,
2013-03-24 08:22:00,39.2,25.1,30.06,North,0,0.0,0.0,57,0.00,,,0.00,WUHU216HW,2013-03-24 13:22:00,
2013-03-24 08:27:00,39.3,25.7,30.06,North,0,0.0,0.0,58,0.00,,,0.00,WUHU216HW,2013-03-24 13:27:00,
2013-03-24 08:32:00,39.5,25.9,30.07,North,0,0.0,0.0,58,0.00,,,0.00,WUHU216HW,2013-03-24 13:32:00,
2013-03-24 08:37:00,39.7,25.6,30.06,North,0,0.0,0.0,57,0.00,,,0.00,WUHU216HW,2013-03-24 13:37:00,
2013-03-24 08:42:00,39.7,25.6,30.07,North,0,0.0,0.0,57,0.00,,,0.00,WUHU216HW,2013-03-24 13:42:00,
2013-03-24 08:48:00,39.9,25.8,30.07,North,0,0.0,0.0,57,0.00,,,0.00,WUHU216HW,2013-03-24 13:48:00,
2013-03-24 08:53:00,39.9,25.8,30.07,North,0,0.0,0.0,56,0.00,,,0.00,WUHU216HW,2013-03-24 13:53:00,
2013-03-24 08:58:00,40.2,25.7,30.07,North,0,0.0,0.0,56,0.00,,,0.00,WUHU216HW,2013-03-24 13:58:00,
2013-03-24 09:03:00,40.2,25.7,30.07,North,0,0.0,0.0,55,0.00,,,0.00,WUHU216HW,2013-03-24 14:03:00,
2013-03-24 09:08:00,40.2,25.7,30.08,North,0,0.0,0.0,55,0.00,,,0.00,WUHU216HW,2013-03-24 14:08:00,
2013-03-24 09:13:00,40.8,25.8,30.08,North,0,0.0,0.0,55,0.00,,,0.00,WUHU216HW,2013-03-24 14:13:00,
2013-03-24 09:18:00,40.8,25.8,30.08,North,0,0.0,0.0,54,0.00,,,0.00,WUHU216HW,2013-03-24 14:18:00,
2013-03-24 09:23:00,41.0,25.5,30.08,North,0,0.0,0.0,54,0.00,,,0.00,WUHU216HW,2013-03-24 14:23:00,
2013-03-24 09:28:00,41.1,25.2,30.09,North,0,0.0,0.0,53,0.00,,,0.00,WUHU216HW,2013-03-24 14:28:00,
2013-03-24 09:33:00,41.7,25.3,30.08,North,0,0.0,0.0,52,0.00,,,0.00,WUHU216HW,2013-03-24 14:33:00,
2013-03-24 09:38:00,41.9,25.5,30.09,North,0,0.0,0.0,52,0.00,,,0.00,WUHU216HW,2013-03-24 14:38:00,
2013-03-24 09:43:00,42.6,25.7,30.09,North,0,0.0,0.0,51,0.00,,,0.00,WUHU216HW,2013-03-24 14:43:00,
2013-03-24 09:48:00,42.4,25.5,30.09,North,0,0.0,0.0,51,0.00,,,0.00,WUHU216HW,2013-03-24 14:48:00,
2013-03-24 09:53:00,42.8,25.9,30.09,North,0,0.0,0.0,51,0.00,,,0.00,WUHU216HW,2013-03-24 14:53:00,
2013-03-24 09:58:00,43.1,25.8,30.10,North,0,0.0,0.0,51,0.00,,,0.00,WUHU216HW,2013-03-24 14:58:00,
2013-03-24 10:03:00,42.9,25.6,30.10,North,0,0.0,0.0,50,0.00,,,0.00,WUHU216HW,2013-03-24 15:03:00,
2013-03-24 10:08:00,43.3,25.4,30.10,North,0,0.0,0.0,49,0.00,,,0.00,WUHU216HW,2013-03-24 15:08:00,
2013-03-24 10:13:00,43.8,25.9,30.10,North,0,0.0,0.0,48,0.00,,,0.00,WUHU216HW,2013-03-24 15:13:00,
2013-03-24 10:18:00,43.8,25.9,30.10,North,0,0.0,0.0,48,0.00,,,0.00,WUHU216HW,2013-03-24 15:18:00,
2013-03-24 10:23:00,44.7,26.2,30.10,North,0,0.0,0.0,48,0.00,,,0.00,WUHU216HW,2013-03-24 15:23:00,
2013-03-24 10:28:00,44.4,25.3,30.10,North,0,0.0,0.0,47,0.00,,,0.00,WUHU216HW,2013-03-24 15:28:00,
2013-03-24 10:33:00,44.7,25.1,30.10,North,0,0.0,0.0,46,0.00,,,0.00,WUHU216HW,2013-03-24 15:33:00,
2013-03-24 10:38:00,44.9,25.8,30.10,North,0,0.0,0.0,47,0.00,,,0.00,WUHU216HW,2013-03-24 15:38:00,
2013-03-24 10:43:00,44.9,25.8,30.10,North,0,0.0,0.0,47,0.00,,,0.00,WUHU216HW,2013-03-24 15:43:00,
2013-03-24 10:48:00,44.9,26.3,30.10,North,0,0.0,0.0,48,0.00,,,0.00,WUHU216HW,2013-03-24 15:48:00,
2013-03-24 10:53:00,45.3,26.1,30.10,North,0,0.0,0.0,47,0.00,,,0.00,WUHU216HW,2013-03-24 15:53:00,
2013-03-24 10:58:00,46.0,25.7,30.10,North,0,0.0,0.0,45,0.00,,,0.00,WUHU216HW,2013-03-24 15:58:00,
2013-03-24 11:04:00,46.0,25.7,30.11,North,0,0.0,0.0,45,0.00,,,0.00,WUHU216HW,2013-03-24 16:04:00,
2013-03-24 11:09:00,46.7,26.3,30.10,North,0,0.0,0.0,45,0.00,,,0.00,WUHU216HW,2013-03-24 16:09:00,
2013-03-24 11:14:00,47.1,26.1,30.10,North,0,0.0,0.0,44,0.00,,,0.00,WUHU216HW,2013-03-24 16:14:00,
2013-03-24 11:19:00,46.9,26.0,30.10,North,0,0.0,0.0,44,0.00,,,0.00,WUHU216HW,2013-03-24 16:19:00,
2013-03-24 11:44:00,48.3,25.1,30.10,North,0,0.0,0.0,41,0.00,,,0.00,WUHU216HW,2013-03-24 16:44:00,
2013-03-24 11:53:00,48.3,25.1,30.11,North,0,0.0,0.0,41,0.00,,,0.00,WUHU216HW,2013-03-24 16:53:00,
2013-03-24 11:58:00,48.3,25.1,30.11,North,0,0.0,0.0,41,0.00,,,0.00,WUHU216HW,2013-03-24 16:58:00,
2013-03-24 12:04:00,49.8,26.9,30.10,North,0,0.0,0.0,41,0.00,,,0.00,WUHU216HW,2013-03-24 17:04:00,
2013-03-24 12:09:00,49.8,26.9,30.10,North,0,0.0,0.0,39,0.00,,,0.00,WUHU216HW,2013-03-24 17:09:00,
2013-03-24 12:14:00,49.4,26.1,30.10,North,0,0.0,0.0,40,0.00,,,0.00,WUHU216HW,2013-03-24 17:14:00,
2013-03-24 12:19:00,50.9,25.3,30.10,North,0,0.0,0.0,37,0.00,,,0.00,WUHU216HW,2013-03-24 17:19:00,
2013-03-24 12:24:00,50.3,25.5,30.10,North,0,0.0,0.0,38,0.00,,,0.00,WUHU216HW,2013-03-24 17:24:00,
2013-03-24 12:29:00,50.1,26.7,30.10,North,0,0.0,0.0,38,0.00,,,0.00,WUHU216HW,2013-03-24 17:29:00,
2013-03-24 12:34:00,50.7,25.8,30.10,North,0,0.0,0.0,38,0.00,,,0.00,WUHU216HW,2013-03-24 17:34:00,
2013-03-24 12:39:00,50.7,25.1,30.10,North,0,0.0,0.0,37,0.00,,,0.00,WUHU216HW,2013-03-24 17:39:00,
2013-03-24 12:44:00,51.4,25.8,30.09,North,0,0.0,0.0,37,0.00,,,0.00,WUHU216HW,2013-03-24 17:44:00,
2013-03-24 12:49:00,52.1,25.1,30.09,North,0,0.0,0.0,35,0.00,,,0.00,WUHU216HW,2013-03-24 17:49:00,
2013-03-24 12:54:00,51.4,25.8,30.09,North,0,0.0,0.0,37,0.00,,,0.00,WUHU216HW,2013-03-24 17:54:00,
2013-03-24 12:59:00,52.3,25.9,30.09,North,0,0.0,0.0,36,0.00,,,0.00,WUHU216HW,2013-03-24 17:59:00,
2013-03-24 13:04:00,52.5,26.1,30.09,North,0,0.0,0.0,36,0.00,,,0.00,WUHU216HW,2013-03-24 18:04:00,
2013-03-24 13:09:00,52.1,25.8,30.08,North,0,0.0,0.0,36,0.00,,,0.00,WUHU216HW,2013-03-24 18:09:00,
2013-03-24 13:14:00,53.2,27.4,30.08,North,0,0.0,0.0,37,0.00,,,0.00,WUHU216HW,2013-03-24 18:14:00,
2013-03-24 13:19:00,53.7,26.5,30.08,North,0,0.0,0.0,36,0.00,,,0.00,WUHU216HW,2013-03-24 18:19:00,
2013-03-24 13:24:00,53.2,27.4,30.08,North,0,0.0,0.0,37,0.00,,,0.00,WUHU216HW,2013-03-24 18:24:00,
2013-03-24 13:29:00,53.2,26.0,30.07,North,0,0.0,0.0,35,0.00,,,0.00,WUHU216HW,2013-03-24 18:29:00,
2013-03-24 13:34:00,53.4,24.2,30.07,North,0,0.0,0.0,32,0.00,,,0.00,WUHU216HW,2013-03-24 18:34:00,
2013-03-24 13:39:00,53.7,25.8,30.07,North,0,0.0,0.0,34,0.00,,,0.00,WUHU216HW,2013-03-24 18:39:00,
2013-03-24 13:44:00,53.7,25.2,30.07,North,0,0.0,0.0,33,0.00,,,0.00,WUHU216HW,2013-03-24 18:44:00,
2013-03-24 13:49:00,54.1,26.1,30.06,North,0,0.0,0.0,34,0.00,,,0.00,WUHU216HW,2013-03-24 18:49:00,
2013-03-24 13:54:00,55.0,26.2,30.06,North,0,0.0,0.0,33,0.00,,,0.00,WUHU216HW,2013-03-24 18:54:00,
2013-03-24 13:59:00,53.9,26.0,30.05,North,0,0.0,0.0,34,0.00,,,0.00,WUHU216HW,2013-03-24 18:59:00,
2013-03-24 14:04:00,55.0,26.2,30.05,North,0,0.0,0.0,33,0.00,,,0.00,WUHU216HW,2013-03-24 19:04:00,
2013-03-24 14:09:00,56.1,26.4,30.05,North,0,0.0,0.0,32,0.00,,,0.00,WUHU216HW,2013-03-24 19:09:00,
2013-03-24 14:14:00,55.2,26.3,30.05,North,0,0.0,0.0,33,0.00,,,0.00,WUHU216HW,2013-03-24 19:14:00,
2013-03-24 14:19:00,55.5,26.7,30.05,North,0,0.0,0.0,33,0.00,,,0.00,WUHU216HW,2013-03-24 19:19:00,
2013-03-24 14:24:00,55.0,25.5,30.05,North,0,0.0,0.0,32,0.00,,,0.00,WUHU216HW,2013-03-24 19:24:00,
2013-03-24 14:29:00,55.2,27.0,30.05,North,0,0.0,0.0,33,0.00,,,0.00,WUHU216HW,2013-03-24 19:29:00,
2013-03-24 14:34:00,56.1,25.7,30.05,North,0,0.0,0.0,31,0.00,,,0.00,WUHU216HW,2013-03-24 19:34:00,
2013-03-24 14:39:00,55.5,26.7,30.04,North,0,0.0,0.0,33,0.00,,,0.00,WUHU216HW,2013-03-24 19:39:00,
2013-03-24 14:44:00,55.2,26.3,30.04,North,0,0.0,0.0,33,0.00,,,0.00,WUHU216HW,2013-03-24 19:44:00,
2013-03-24 14:49:00,55.0,24.8,30.04,North,0,0.0,0.0,31,0.00,,,0.00,WUHU216HW,2013-03-24 19:49:00,
2013-03-24 14:54:00,55.5,24.6,30.03,North,0,0.0,0.0,31,0.00,,,0.00,WUHU216HW,2013-03-24 19:54:00,
2013-03-24 14:59:00,56.8,26.4,30.03,North,0,0.0,0.0,31,0.00,,,0.00,WUHU216HW,2013-03-24 19:59:00,
2013-03-24 15:04:00,57.0,26.6,30.03,North,0,0.0,0.0,31,0.00,,,0.00,WUHU216HW,2013-03-24 20:04:00,
2013-03-24 15:09:00,56.8,26.4,30.03,North,0,0.0,0.0,31,0.00,,,0.00,WUHU216HW,2013-03-24 20:09:00,
2013-03-24 15:15:00,56.1,25.0,30.03,North,0,0.0,0.0,30,0.00,,,0.00,WUHU216HW,2013-03-24 20:15:00,
2013-03-24 15:20:00,56.4,24.4,30.03,North,0,0.0,0.0,30,0.00,,,0.00,WUHU216HW,2013-03-24 20:20:00,
2013-03-24 15:25:00,57.0,26.6,30.03,North,0,0.0,0.0,31,0.00,,,0.00,WUHU216HW,2013-03-24 20:25:00,
2013-03-24 15:30:00,56.6,25.5,30.03,North,0,0.0,0.0,30,0.00,,,0.00,WUHU216HW,2013-03-24 20:30:00,
2013-03-24 15:35:00,56.8,25.7,30.03,North,0,0.0,0.0,30,0.00,,,0.00,WUHU216HW,2013-03-24 20:35:00,
2013-03-24 15:40:00,57.0,25.9,30.02,North,0,0.0,0.0,30,0.00,,,0.00,WUHU216HW,2013-03-24 20:40:00,
2013-03-24 15:45:00,57.9,26.7,30.01,North,0,0.0,0.0,30,0.00,,,0.00,WUHU216HW,2013-03-24 20:45:00,
2013-03-24 15:50:00,56.8,24.7,30.01,North,0,0.0,0.0,29,0.00,,,0.00,WUHU216HW,2013-03-24 20:50:00,
2013-03-24 15:55:00,57.5,25.4,30.01,North,0,0.0,0.0,29,0.00,,,0.00,WUHU216HW,2013-03-24 20:55:00,
2013-03-24 16:00:00,56.8,25.7,30.01,North,0,0.0,0.0,30,0.00,,,0.00,WUHU216HW,2013-03-24 21:00:00,
2013-03-24 16:05:00,57.5,25.4,30.01,North,0,0.0,0.0,29,0.00,,,0.00,WUHU216HW,2013-03-24 21:05:00,
2013-03-24 16:10:00,56.8,24.7,30.00,North,0,0.0,0.0,29,0.00,,,0.00,WUHU216HW,2013-03-24 21:10:00,
2013-03-24 16:15:00,56.8,24.7,30.01,North,0,0.0,0.0,29,0.00,,,0.00,WUHU216HW,2013-03-24 21:15:00,
2013-03-24 16:20:00,57.0,24.9,30.00,North,0,0.0,0.0,29,0.00,,,0.00,WUHU216HW,2013-03-24 21:20:00,
2013-03-24 16:25:00,57.3,25.2,30.01,North,0,0.0,0.0,29,0.00,,,0.00,WUHU216HW,2013-03-24 21:25:00,
2013-03-24 16:30:00,57.3,25.2,30.01,North,0,0.0,0.0,29,0.00,,,0.00,WUHU216HW,2013-03-24 21:30:00,
2013-03-24 16:35:00,56.3,24.3,30.01,North,0,0.0,0.0,29,0.00,,,0.00,WUHU216HW,2013-03-24 21:35:00,
2013-03-24 16:40:00,57.5,25.4,30.00,North,0,0.0,0.0,27,0.00,,,0.00,WUHU216HW,2013-03-24 21:40:00,
2013-03-24 16:45:00,57.7,23.6,30.00,North,0,0.0,0.0,27,0.00,,,0.00,WUHU216HW,2013-03-24 21:45:00,
2013-03-24 16:50:00,56.4,22.5,30.00,North,0,0.0,0.0,27,0.00,,,0.00,WUHU216HW,2013-03-24 21:50:00,
2013-03-24 16:55:00,57.0,24.9,30.00,North,0,0.0,0.0,29,0.00,,,0.00,WUHU216HW,2013-03-24 21:55:00,
2013-03-24 17:00:00,56.4,24.4,30.00,North,0,0.0,0.0,29,0.00,,,0.00,WUHU216HW,2013-03-24 22:00:00,
2013-03-24 17:05:00,56.8,24.7,30.00,North,0,0.0,0.0,29,0.00,,,0.00,WUHU216HW,2013-03-24 22:05:00,
2013-03-24 17:10:00,56.8,24.7,30.00,North,0,0.0,0.0,28,0.00,,,0.00,WUHU216HW,2013-03-24 22:10:00,
2013-03-24 17:15:00,56.6,22.7,30.00,North,0,0.0,0.0,28,0.00,,,0.00,WUHU216HW,2013-03-24 22:15:00,
2013-03-24 17:20:00,56.1,22.2,29.99,North,0,0.0,0.0,27,0.00,,,0.00,WUHU216HW,2013-03-24 22:20:00,
2013-03-24 17:25:00,56.3,22.4,30.00,North,0,0.0,0.0,27,0.00,,,0.00,WUHU216HW,2013-03-24 22:25:00,
2013-03-24 17:30:00,56.1,23.2,30.00,North,0,0.0,0.0,28,0.00,,,0.00,WUHU216HW,2013-03-24 22:30:00,
2013-03-24 17:35:00,56.1,23.2,30.00,North,0,0.0,0.0,27,0.00,,,0.00,WUHU216HW,2013-03-24 22:35:00,
2013-03-24 17:40:00,56.1,23.2,30.00,North,0,0.0,0.0,28,0.00,,,0.00,WUHU216HW,2013-03-24 22:40:00,
2013-03-24 17:45:00,56.4,23.5,30.00,North,0,0.0,0.0,28,0.00,,,0.00,WUHU216HW,2013-03-24 22:45:00,
2013-03-24 17:50:00,56.1,23.2,30.00,North,0,0.0,0.0,28,0.00,,,0.00,WUHU216HW,2013-03-24 22:50:00,
2013-03-24 17:56:00,55.7,22.8,30.00,North,0,0.0,0.0,28,0.00,,,0.00,WUHU216HW,2013-03-24 22:56:00,
2013-03-24 18:01:00,55.7,22.8,29.99,North,0,0.0,0.0,28,0.00,,,0.00,WUHU216HW,2013-03-24 23:01:00,
2013-03-24 18:06:00,55.7,23.8,29.99,North,0,0.0,0.0,29,0.00,,,0.00,WUHU216HW,2013-03-24 23:06:00,
2013-03-24 18:11:00,55.4,22.5,30.00,North,0,0.0,0.0,28,0.00,,,0.00,WUHU216HW,2013-03-24 23:11:00,
2013-03-24 18:16:00,55.4,23.5,30.00,North,0,0.0,0.0,29,0.00,,,0.00,WUHU216HW,2013-03-24 23:16:00,
2013-03-24 18:21:00,55.2,23.3,30.00,North,0,0.0,0.0,30,0.00,,,0.00,WUHU216HW,2013-03-24 23:21:00,
2013-03-24 18:26:00,55.0,23.2,30.00,North,0,0.0,0.0,30,0.00,,,0.00,WUHU216HW,2013-03-24 23:26:00,
2013-03-24 18:31:00,54.8,24.0,30.00,North,0,0.0,0.0,30,0.00,,,0.00,WUHU216HW,2013-03-24 23:31:00,
2013-03-24 18:36:00,54.6,23.8,30.00,North,0,0.0,0.0,30,0.00,,,0.00,WUHU216HW,2013-03-24 23:36:00,
2013-03-24 18:41:00,54.3,23.5,30.00,North,0,0.0,0.0,30,0.00,,,0.00,WUHU216HW,2013-03-24 23:41:00,
2013-03-24 18:46:00,54.1,24.1,30.00,North,0,0.0,0.0,31,0.00,,,0.00,WUHU216HW,2013-03-24 23:46:00,
2013-03-24 18:51:00,54.1,24.1,30.00,North,0,0.0,0.0,31,0.00,,,0.00,WUHU216HW,2013-03-24 23:51:00,
2013-03-24 18:56:00,54.1,24.1,30.00,North,0,0.0,0.0,31,0.00,,,0.00,WUHU216HW,2013-03-24 23:56:00,
2013-03-24 19:01:00,53.7,23.8,30.00,North,0,0.0,0.0,31,0.00,,,0.00,WUHU216HW,2013-03-25 00:01:00,
2013-03-24 19:07:00,53.4,22.8,30.00,North,0,0.0,0.0,30,0.00,,,0.00,WUHU216HW,2013-03-25 00:07:00,
2013-03-24 19:12:00,53.2,22.6,30.00,North,0,0.0,0.0,30,0.00,,,0.00,WUHU216HW,2013-03-25 00:12:00,
2013-03-24 19:17:00,52.8,23.0,30.01,North,0,0.0,0.0,31,0.00,,,0.00,WUHU216HW,2013-03-25 00:17:00,
2013-03-24 19:22:00,52.7,23.5,30.01,North,0,0.0,0.0,32,0.00,,,0.00,WUHU216HW,2013-03-25 00:22:00,
2013-03-24 19:27:00,52.1,23.7,30.01,North,0,0.0,0.0,33,0.00,,,0.00,WUHU216HW,2013-03-25 00:27:00,
2013-03-24 19:32:00,51.9,23.5,30.01,North,0,0.0,0.0,33,0.00,,,0.00,WUHU216HW,2013-03-25 00:32:00,
2013-03-24 19:36:00,51.4,23.7,30.01,North,0,0.0,0.0,34,0.00,,,0.00,WUHU216HW,2013-03-25 00:36:00,
2013-03-24 19:37:00,51.4,23.7,30.01,North,0,0.0,0.0,34,0.00,,,0.00,WUHU216HW,2013-03-25 00:37:00,
2013-03-24 19:42:00,51.4,23.7,30.01,North,0,0.0,0.0,34,0.00,,,0.00,WUHU216HW,2013-03-25 00:42:00,
2013-03-24 19:52:00,50.3,22.8,30.01,North,0,0.0,0.0,34,0.00,,,0.00,WUHU216HW,2013-03-25 00:52:00,
2013-03-24 19:57:00,50.3,22.8,30.01,North,0,0.0,0.0,34,0.00,,,0.00,WUHU216HW,2013-03-25 00:57:00,
2013-03-24 20:27:00,48.3,23.1,30.02,North,0,0.0,0.0,37,0.00,,,0.00,WUHU216HW,2013-03-25 01:27:00,
2013-03-24 20:32:00,47.4,23.0,30.03,North,0,0.0,0.0,38,0.00,,,0.00,WUHU216HW,2013-03-25 01:32:00,
2013-03-24 20:37:00,46.9,23.1,30.03,North,0,0.0,0.0,39,0.00,,,0.00,WUHU216HW,2013-03-25 01:37:00,
2013-03-24 20:43:00,46.9,23.1,30.03,North,0,0.0,0.0,39,0.00,,,0.00,WUHU216HW,2013-03-25 01:43:00,
2013-03-24 20:48:00,46.7,23.0,30.04,North,0,0.0,0.0,39,0.00,,,0.00,WUHU216HW,2013-03-25 01:48:00,
2013-03-24 20:53:00,46.2,23.2,30.04,North,0,0.0,0.0,40,0.00,,,0.00,WUHU216HW,2013-03-25 01:53:00,
2013-03-24 20:58:00,46.0,23.0,30.05,North,0,0.0,0.0,41,0.00,,,0.00,WUHU216HW,2013-03-25 01:58:00,
2013-03-24 21:03:00,45.6,23.2,30.05,North,0,0.0,0.0,41,0.00,,,0.00,WUHU216HW,2013-03-25 02:03:00,
2013-03-24 21:08:00,45.3,23.4,30.05,North,0,0.0,0.0,42,0.00,,,0.00,WUHU216HW,2013-03-25 02:08:00,
2013-03-24 21:13:00,45.3,23.4,30.05,North,0,0.0,0.0,42,0.00,,,0.00,WUHU216HW,2013-03-25 02:13:00,
2013-03-24 21:18:00,45.3,23.4,30.05,North,0,0.0,0.0,42,0.00,,,0.00,WUHU216HW,2013-03-25 02:18:00,
2013-03-24 21:23:00,45.1,23.3,30.06,North,0,0.0,0.0,42,0.00,,,0.00,WUHU216HW,2013-03-25 02:23:00,
2013-03-24 21:28:00,44.9,23.1,30.06,North,0,0.0,0.0,42,0.00,,,0.00,WUHU216HW,2013-03-25 02:28:00,
2013-03-24 21:33:00,44.9,23.1,30.07,North,0,0.0,0.0,42,0.00,,,0.00,WUHU216HW,2013-03-25 02:33:00,
2013-03-24 21:38:00,44.4,23.2,30.07,North,0,0.0,0.0,44,0.00,,,0.00,WUHU216HW,2013-03-25 02:38:00,
2013-03-24 21:43:00,43.8,23.2,30.07,North,0,0.0,0.0,44,0.00,,,0.00,WUHU216HW,2013-03-25 02:43:00,
2013-03-24 21:48:00,43.1,23.1,30.07,North,0,0.0,0.0,45,0.00,,,0.00,WUHU216HW,2013-03-25 02:48:00,
2013-03-24 21:53:00,42.9,22.9,30.07,North,0,0.0,0.0,45,0.00,,,0.00,WUHU216HW,2013-03-25 02:53:00,
2013-03-24 21:58:00,42.9,22.9,30.08,North,0,0.0,0.0,46,0.00,,,0.00,WUHU216HW,2013-03-25 02:58:00,
2013-03-24 22:03:00,42.9,22.9,30.08,North,0,0.0,0.0,45,0.00,,,0.00,WUHU216HW,2013-03-25 03:03:00,
2013-03-24 22:08:00,42.8,22.8,30.08,North,0,0.0,0.0,45,0.00,,,0.00,WUHU216HW,2013-03-25 03:08:00,
2013-03-24 22:13:00,42.6,23.1,30.08,North,0,0.0,0.0,46,0.00,,,0.00,WUHU216HW,2013-03-25 03:13:00,
2013-03-24 22:18:00,42.4,23.0,30.09,North,0,0.0,0.0,46,0.00,,,0.00,WUHU216HW,2013-03-25 03:18:00,
2013-03-24 22:23:00,42.2,23.3,30.09,North,0,0.0,0.0,47,0.00,,,0.00,WUHU216HW,2013-03-25 03:23:00,
2013-03-24 22:28:00,41.9,23.0,30.09,North,0,0.0,0.0,47,0.00,,,0.00,WUHU216HW,2013-03-25 03:28:00,
2013-03-24 22:33:00,41.5,23.2,30.09,North,0,0.0,0.0,48,0.00,,,0.00,WUHU216HW,2013-03-25 03:33:00,
2013-03-24 22:38:00,41.1,23.3,30.10,North,0,0.0,0.0,49,0.00,,,0.00,WUHU216HW,2013-03-25 03:38:00,
2013-03-24 22:43:00,40.6,23.3,30.10,North,0,0.0,0.0,50,0.00,,,0.00,WUHU216HW,2013-03-25 03:43:00,
2013-03-24 22:48:00,39.7,23.0,30.10,North,0,0.0,0.0,51,0.00,,,0.00,WUHU216HW,2013-03-25 03:48:00,
2013-03-24 22:54:00,39.3,23.1,30.10,North,0,0.0,0.0,52,0.00,,,0.00,WUHU216HW,2013-03-25 03:54:00,
2013-03-24 22:59:00,38.8,23.0,30.10,North,0,0.0,0.0,53,0.00,,,0.00,WUHU216HW,2013-03-25 03:59:00,
2013-03-24 23:04:00,38.4,23.1,30.11,North,0,0.0,0.0,54,0.00,,,0.00,WUHU216HW,2013-03-25 04:04:00,
2013-03-24 23:09:00,38.3,23.0,30.10,North,0,0.0,0.0,54,0.00,,,0.00,WUHU216HW,2013-03-25 04:09:00,
2013-03-24 23:14:00,38.3,23.0,30.10,North,0,0.0,0.0,54,0.00,,,0.00,WUHU216HW,2013-03-25 04:14:00,
2013-03-24 23:19:00,37.5,22.8,30.11,North,0,0.0,0.0,55,0.00,,,0.00,WUHU216HW,2013-03-25 04:19:00,
2013-03-24 23:24:00,37.4,23.0,30.10,North,0,0.0,0.0,56,0.00,,,0.00,WUHU216HW,2013-03-25 04:24:00,
2013-03-24 23:29:00,37.2,22.9,30.11,North,0,0.0,0.0,56,0.00,,,0.00,WUHU216HW,2013-03-25 04:29:00,
2013-03-24 23:34:00,37.0,23.1,30.11,North,0,0.0,0.0,57,0.00,,,0.00,WUHU216HW,2013-03-25 04:34:00,
2013-03-24 23:39:00,37.0,23.1,30.11,North,0,0.0,0.0,57,0.00,,,0.00,WUHU216HW,2013-03-25 04:39:00,
2013-03-24 23:44:00,37.2,23.3,30.12,North,0,0.0,0.0,57,0.00,,,0.00,WUHU216HW,2013-03-25 04:44:00,
2013-03-24 23:49:00,37.2,23.3,30.12,North,0,0.0,0.0,58,0.00,,,0.00,WUHU216HW,2013-03-25 04:49:00,
2013-03-24 23:54:00,37.2,23.3,30.12,North,0,0.0,0.0,57,0.00,,,0.00,WUHU216HW,2013-03-25 04:54:00,
2013-03-24 23:59:00,37.0,23.6,30.12,North,0,0.0,0.0,58,0.00,,,0.00,WUHU216HW,2013-03-25 04:59:00,